Rush City, MN

1:14 PM CDT on March 26, 2017 (GMT -0500)
Rush City Regional

Weather History for KROS - December, 2012

Change the Weather History Date:

Saturday, December 1, 2012

  Actual Average (KCBG) Record (KCBG)
Temperature  
Mean Temperature 36 °F -  
Max Temperature 40 °F 29 °F 59 °F (1998)
Min Temperature 32 °F 12 °F -12 °F (1975)
Degree Days  
Heating Degree Days 29    
Moisture  
Dew Point 35 °F    
Average Humidity 94    
Maximum Humidity 96    
Minimum Humidity 90    
Precipitation  
Precipitation 0.00 in - - ()
Sea Level Pressure  
Sea Level Pressure 29.83 in    
Wind  
Wind Speed 8 mph (SSE)    
Max Wind Speed 16 mph    
Max Gust Speed 22 mph    
Visibility 6 miles    
Events      
Averages and records for this station are not official NWS values.
T = Trace of Precipitation, MM = Missing Value Source: NWS Daily Summary

Daily Weather History Graph

Daily Weather History Graph

Search for Another Location

Airport or City:

Trip Planner

Search our weather history database for the weather conditions in past years. The results will help you decide how hot, cold, wet, or windy it might be!

Date:

Astronomy

Dec. 01, 2012 Rise Set
Actual Time 7:32 AM CST 4:29 PM CST
Civil Twilight 6:59 AM CST 5:02 PM CST
Nautical Twilight 6:21 AM CST 5:39 PM CST
Astronomical Twilight 5:46 AM CST 6:15 PM CST
Moon 7:22 PM CST (12/1) 9:44 AM CST (12/1)
Length of Visible Light 10h 03m
Length of Day
8h 56m
Waning Gibbous, 91% of the Moon is Illuminated
Dec 1
Waning Gibbous
Dec 6
Last Quarter
Dec 13
New
Dec 19
First Quarter
Dec 28
Full

Hourly Weather History & Observations

Time (CST) Temp. Windchill Dew Point Humidity Pressure Visibility Wind Dir Wind Speed Gust Speed Precip Events Conditions
12:14 AM 32.4 °F 24.0 °F 30.6 °F 93% 30.05 in 10.0 mi SE 10.4 mph 16.1 mph N/A   Overcast
12:35 AM 32.5 °F 23.7 °F 30.9 °F 94% 30.05 in 10.0 mi SSE 11.5 mph - N/A   Overcast
12:54 AM 32.9 °F 25.3 °F 31.1 °F 93% 30.05 in 10.0 mi SSE 9.2 mph 18.4 mph N/A   Overcast
1:14 AM 32.9 °F 24.7 °F 31.5 °F 94% 30.03 in 7.0 mi SE 10.4 mph 16.1 mph N/A   Overcast
1:35 AM 32.9 °F 25.9 °F 31.6 °F 95% 30.02 in 7.0 mi SE 8.1 mph - N/A   Overcast
1:54 AM 32.9 °F 24.7 °F 31.8 °F 96% 30.01 in 7.0 mi SE 10.4 mph - N/A   Overcast
2:14 AM 33.1 °F 24.9 °F 32.0 °F 96% 30.00 in 5.0 mi SE 10.4 mph 16.1 mph N/A   Overcast
2:35 AM 33.3 °F 27.1 °F 32.0 °F 95% 30.00 in 4.0 mi SSE 6.9 mph - N/A   Overcast
2:54 AM 33.4 °F 26.6 °F 32.2 °F 95% 30.00 in 4.0 mi SSE 8.1 mph - N/A   Overcast
3:35 AM 33.6 °F 26.2 °F 32.4 °F 95% 29.98 in 3.0 mi SSE 9.2 mph - N/A   Overcast
3:54 AM 33.8 °F 26.4 °F 32.5 °F 95% 29.97 in 3.0 mi SE 9.2 mph 16.1 mph N/A   Overcast
4:15 AM 33.8 °F 27.0 °F 32.7 °F 96% 29.95 in 3.0 mi SE 8.1 mph - N/A   Overcast
4:34 AM 33.8 °F 25.3 °F 32.9 °F 96% 29.93 in 3.0 mi SE 11.5 mph 17.3 mph N/A   Overcast
4:55 AM 34.0 °F 25.5 °F 32.9 °F 96% 29.92 in 4.0 mi SSE 11.5 mph 16.1 mph N/A   Overcast
5:14 AM 34.0 °F 25.0 °F 32.9 °F 96% 29.90 in 4.0 mi SSE 12.7 mph - N/A   Overcast
5:34 AM 34.3 °F 25.0 °F 33.3 °F 96% 29.89 in 5.0 mi SSE 13.8 mph 18.4 mph N/A   Overcast
5:55 AM 34.7 °F 25.5 °F 33.4 °F 95% 29.89 in 7.0 mi SSE 13.8 mph 20.7 mph N/A   Overcast
6:14 AM 34.7 °F 26.4 °F 33.4 °F 95% 29.88 in 7.0 mi SSE 11.5 mph 17.3 mph N/A   Overcast
6:35 AM 34.7 °F 25.9 °F 33.4 °F 95% 29.88 in 5.0 mi SE 12.7 mph - N/A   Overcast
6:54 AM 34.7 °F 26.9 °F 33.4 °F 95% 29.87 in 5.0 mi SSE 10.4 mph 18.4 mph N/A   Overcast
7:14 AM 34.7 °F 25.9 °F 33.4 °F 95% 29.86 in 5.0 mi SE 12.7 mph 19.6 mph N/A   Overcast
7:35 AM 34.7 °F 25.9 °F 33.4 °F 95% 29.85 in 5.0 mi SSE 12.7 mph 19.6 mph N/A   Overcast
7:54 AM 35.1 °F 27.4 °F 33.8 °F 95% 29.85 in 5.0 mi SE 10.4 mph 17.3 mph N/A   Overcast
8:15 AM 35.2 °F 27.1 °F 33.8 °F 94% 29.85 in 5.0 mi SSE 11.5 mph - N/A   Overcast
8:35 AM 35.6 °F 29.2 °F 34.0 °F 94% 29.85 in 5.0 mi SE 8.1 mph - N/A   Overcast
8:54 AM 35.8 °F 28.8 °F 34.2 °F 94% 29.85 in 5.0 mi SE 9.2 mph - N/A   Overcast
9:15 AM 36.0 °F 29.0 °F 34.2 °F 93% 29.85 in 5.0 mi SE 9.2 mph - N/A   Overcast
9:34 AM 36.3 °F 28.9 °F 34.3 °F 93% 29.83 in 5.0 mi SE 10.4 mph - N/A   Overcast
9:54 AM 36.5 °F 28.7 °F 34.7 °F 93% 29.82 in 5.0 mi SE 11.5 mph - N/A   Overcast
10:15 AM 36.5 °F 29.2 °F 34.7 °F 93% 29.82 in 4.0 mi SSE 10.4 mph - N/A   Overcast
10:34 AM 36.7 °F 28.0 °F 35.1 °F 94% 29.81 in 3.0 mi SSE 13.8 mph - N/A   Overcast
10:55 AM 37.0 °F 27.7 °F 35.6 °F 95% 29.78 in 4.0 mi SSE 16.1 mph 21.9 mph N/A   Overcast
11:14 AM 37.4 °F 28.9 °F 36.0 °F 95% 29.77 in 5.0 mi SSE 13.8 mph 19.6 mph N/A   Overcast
11:35 AM 37.9 °F 30.5 °F 36.1 °F 93% 29.75 in 5.0 mi SSE 11.5 mph 18.4 mph N/A   Overcast
11:54 AM 38.5 °F 30.7 °F 36.5 °F 93% 29.74 in 7.0 mi SSE 12.7 mph 17.3 mph N/A   Overcast
12:15 PM 39.2 °F 33.6 °F 36.7 °F 91% 29.75 in 7.0 mi South 8.1 mph - N/A   Overcast
12:35 PM 39.4 °F 32.7 °F 36.7 °F 90% 29.74 in 7.0 mi South 10.4 mph - N/A   Overcast
12:54 PM 39.2 °F 34.2 °F 36.5 °F 90% 29.74 in 7.0 mi South 6.9 mph - N/A   Overcast
1:15 PM 39.6 °F 35.4 °F 37.0 °F 91% 29.73 in 7.0 mi SSE 5.8 mph - N/A   Overcast
1:35 PM 39.7 °F 35.6 °F 37.4 °F 91% 29.73 in 7.0 mi SSE 5.8 mph - N/A   Overcast
1:54 PM 39.9 °F 35.1 °F 37.6 °F 91% 29.72 in 5.0 mi SSE 6.9 mph - N/A   Overcast
2:15 PM 40.1 °F 34.7 °F 37.8 °F 91% 29.72 in 5.0 mi South 8.1 mph - N/A   Overcast
2:34 PM 40.3 °F 34.9 °F 38.1 °F 92% 29.72 in 7.0 mi SSE 8.1 mph - N/A   Overcast
2:54 PM 40.3 °F 35.5 °F 38.3 °F 93% 29.71 in 5.0 mi South 6.9 mph - N/A   Overcast
3:15 PM 40.3 °F 36.3 °F 38.3 °F 93% 29.72 in 7.0 mi South 5.8 mph - N/A   Overcast
3:34 PM 40.5 °F 36.5 °F 38.3 °F 92% 29.72 in 7.0 mi South 5.8 mph - N/A   Overcast
3:54 PM 40.3 °F 37.1 °F 38.3 °F 93% 29.72 in 7.0 mi South 4.6 mph - N/A   Overcast
4:15 PM 40.3 °F 37.1 °F 38.3 °F 93% 29.73 in 7.0 mi South 4.6 mph - N/A   Overcast
4:34 PM 40.1 °F - 38.3 °F 93% 29.74 in 7.0 mi Calm Calm - N/A   Overcast
4:54 PM 39.9 °F - 37.9 °F 93% 29.74 in 7.0 mi Calm Calm - N/A   Overcast
5:15 PM 39.7 °F - 37.8 °F 93% 29.76 in 7.0 mi Calm Calm - N/A   Overcast
5:54 PM 39.2 °F - 37.4 °F 93% 29.76 in 7.0 mi Calm Calm - N/A   Overcast
6:15 PM 39.2 °F - 37.4 °F 93% 29.77 in 7.0 mi Calm Calm - N/A   Overcast
6:34 PM 38.8 °F - 37.2 °F 94% 29.77 in 5.0 mi Calm Calm - N/A   Overcast
6:55 PM 38.5 °F - 36.9 °F 94% 29.77 in 5.0 mi Calm Calm - N/A   Overcast
7:15 PM 39.0 °F - 37.4 °F 94% 29.78 in 7.0 mi Calm Calm - N/A   Overcast
7:34 PM 38.8 °F - 37.4 °F 95% 29.78 in 7.0 mi Calm Calm - N/A   Overcast
7:55 PM 39.2 °F - 37.6 °F 94% 29.78 in 7.0 mi Calm Calm - N/A   Overcast
8:15 PM 37.8 °F - 36.1 °F 94% 29.77 in 5.0 mi Calm Calm - N/A   Scattered Clouds
8:34 PM 36.7 °F - 35.2 °F 95% 29.78 in 4.0 mi Calm Calm - N/A   Clear
8:55 PM 36.5 °F - 35.2 °F 95% 29.80 in 3.0 mi Calm Calm - N/A   Clear
9:15 PM 36.1 °F - 34.9 °F 95% 29.79 in 1.5 mi Calm Calm - N/A   Scattered Clouds
9:34 PM 35.1 °F - 33.8 °F 95% 29.80 in 1.0 mi Calm Calm - N/A   Mostly Cloudy
9:55 PM 35.2 °F - 34.0 °F 95% 29.82 in 1.2 mi Calm Calm - N/A   Scattered Clouds
10:15 PM 35.1 °F 31.0 °F 34.0 °F 96% 29.83 in 4.0 mi NW 4.6 mph - N/A   Clear
10:34 PM 35.2 °F 32.4 °F 34.0 °F 95% 29.83 in 5.0 mi WNW 3.5 mph - N/A   Scattered Clouds
10:55 PM 35.8 °F - 34.7 °F 96% 29.83 in 7.0 mi Calm Calm - N/A   Scattered Clouds
11:14 PM 34.7 °F - 33.4 °F 95% 29.83 in 7.0 mi Calm Calm - N/A   Clear
11:35 PM 34.2 °F - 33.1 °F 96% 29.83 in 5.0 mi Calm Calm - N/A   Mostly Cloudy
11:55 PM 34.3 °F - 33.3 °F 96% 29.84 in 5.0 mi Calm Calm - N/A   Overcast